STARLINK-11568, 63307

Orbit data source: Space-Track

STARLINK-11568, 63307 is a payload satellite owned by SpaceX/Seattle (US) in LEO that was launched on Tue, 18 Mar 2025 UTC via an FALCON 9 launch vehicle from the Air Force Eastern Test Range (AFETR). Payload-class satellites include a variety of spacecraft equipped with specific instruments for various scientific and technological missions. These include communications satellites like Starlink; space stations such as the ISS; scientific satellites like the Hubble; Earth observation satellites from companies like Planet Labs, Umbra, and HawkEye 360; GPS; miniature CubeSats for education and research; and military/defense satellites.

Loading next visibility...
Identifier
63307, 2025-057A
Orbit
LEO
Last TLE update
19 hours ago
Origin
Manufacturer
SpaceX/Seattle
Mission
Operational Commercial Communications
Bus & Motor
STARLINK V2M, Unknown motor
Mass
730 kg wet, ~700 kg dry
Launch date (UTC)
2025-03-18 (4 months ago)
Launch vehicle
FALCON 9
Launch site
Air Force Eastern Test Range (AFETR)
Object type
Payload
Rocket body
Debris
Shape & HBR
Box + 2 Pan, 29 m
Radar Cross Section
36.964 m², Large (>1 m²)

Expand to show TLE details & history

TLE from 19 hours ago
0 STARLINK-11568
1 63307U 25057A   25191.32573115  .00135218  00000-0  10404-2 0  9994
2 63307  42.9989 285.1023 0002778 289.2481  70.8086 15.70833652 19066
Epoch: 2025-07-10T07:49Z
TLE epoch observation values (Epoch: 2025-07-10T07:49:03.171Z)
Latitude
-0.00001°
Longitude
-120.65455°
Altitude
355.67 km
Speed
7.698 km/s
True Right ascension
19h 00m 24s
True Declination
0° 00' 00"
Sunlit
Object was in full shadow at epoch
Visualization orbit readout
Latitude
41.21932°
Longitude
-14.46636°
Altitude
360.433 km
Speed
7.698 km/s
Apparent Right ascension
02h 27m 43s
Apparent Declination
2° 00' 18"
Sunlit
Object is in daylight
Visualization observer readout
Local Sidereal Time
14:51:06
Azimuth
8.706° NNE
Elevation
-47.738°
Doppler factor
1
Orbital elements
Apogee altitude
360.366 km
Perigee altitude
356.624 km
Semi-major axis
6,736.632 km
Eccentricity
0.00028
Inclination
42.9989°
RAAN
285.1023°
Arg. of periapsis
289.2481°
True anomaly
Unknown
Mean anomaly
70.8086°
Eccentric anomaly
Unknown
Mean motion
3.92535 °/min
Orbital period
91.71 mins
BSTAR
0.0010404
Loading maneuver chart data...
Loading SW <> Apogee altitude chart data...
Loading historical data...
Loading historical data...
Loading historical data...
Loading historical data...
Loading historical data...
Loading historical data...
Loading historical data...

STARLINK-11568 Visibility forecast

Observer location: undefined°, undefined°

Span
Click to sort rows by Start time (UTC) header in descending order
Start Az.
Max El. time (UTC)
Max El. Az.
Max El.
End time (UTC)
End Az.
5 mins2025-07-11 09:59:31.790Z234.671° WSW2025-07-11 10:01:31.790Z193.89° SSW38.192°2025-07-11 10:04:31.790Z77.706° E
4 mins2025-07-11 11:36:31.790Z289.097° WNW2025-07-11 11:38:31.790Z26.271° NE33.607°2025-07-11 11:40:31.790Z67.392° ENE
4 mins2025-07-11 13:12:31.790Z297.226° NW2025-07-11 13:14:31.790Z26.318° NE39.113°2025-07-11 13:16:31.790Z87.111° E
|